This demonstration page uses our WeatherBlox Daily Observations layout. Learn more.

Left ArrowRight Arrow

Hourly Observations for May 24, 2022

Temp ( °F °C ) Dew Point ( °F °C ) Humidity (%) Winds ( mph kmh ) Pressure ( in mb ) Visibility ( mi km ) Precip ( " mm )
12:54 am 00:54 Cloudy 58 14.4 38 3.3 48 48 E 8 13 30.12 1020 10 16 0.00 0.00
1:54 am 01:54 Partly Cloudy 57 13.9 37 2.8 47 47 E 8 13 30.10 1019 10 16 0.00 0.00
2:54 am 02:54 Cloudy 55 12.8 38 3.3 53 53 ENE 5 7 30.09 1019 10 16 0.00 0.00
3:54 am 03:54 Cloudy 53 11.7 40 4.4 61 61 N 5 7 30.09 1019 10 16 0.00 0.00
4:54 am 04:54 Cloudy 53 11.7 40 4.4 61 61 NNE 3 6 30.09 1019 10 16 0.00 0.00
5:54 am 05:54 Cloudy 53 11.7 39 3.9 59 59 N 3 6 30.08 1019 10 16 0.00 0.00
6:54 am 06:54 Cloudy 53 11.7 40 4.4 61 61 NE 3 6 30.08 1019 10 16 0.00 0.00
7:54 am 07:54 Cloudy 54 12.2 40 4.4 59 59 ENE 10 17 30.06 1018 10 16 0.00 0.00
8:54 am 08:54 Cloudy 57 13.9 42 5.6 58 58 E 9 15 30.06 1018 10 16 0.00 0.00
9:54 am 09:54 Cloudy 59 15 44 6.7 58 58 E 9 15 30.05 1018 10 16 0.00 0.00
10:54 am 10:54 Cloudy with Light Rain 56 13.3 47 8.3 72 72 ESE 15 24 30.06 1018 9 14 0.00 0.00
11:54 am 11:54 Cloudy with Light Rain 54 12.2 50 10 87 87 E 9 15 30.06 1018 4 6 0.03 0.76
12:26 pm 12:26 Cloudy with Light Rain 54 12.2 51 10.6 90 90 ENE 15 24 30.04 1017 3 5 0.03 0.76
12:44 pm 12:44 Cloudy with Rain 54 12.2 50 10 87 87 ENE 13 20 30.04 1017 3 5 0.06 1.52
12:54 pm 12:54 Cloudy with Rain 54 12.2 51 10.6 90 90 ENE 16 26 30.03 1017 3 5 0.07 1.78
1:08 pm 13:08 Cloudy with Light Rain 54 12.2 51 10.6 90 90 E 16 26 30.02 1017 4 6 0.03 0.76
1:23 pm 13:23 Cloudy with Light Rain 54 12.2 50 10 87 87 ENE 18 30 30.01 1016 4 6 0.05 1.27
1:26 pm 13:26 Cloudy with Light Rain 54 12.2 50 10 87 87 ENE 15 24 30.01 1016 4 6 0.05 1.27
1:36 pm 13:36 Cloudy with Light Rain 54 12.2 50 10 87 87 ENE 17 28 30.01 1016 5 8 0.05 1.27
1:54 pm 13:54 Cloudy with Light Rain 53 11.7 50 10 89 89 ENE 18 30 29.99 1016 6 10 0.06 1.52
2:05 pm 14:05 Cloudy with Light Rain 53 11.7 50 10 89 89 ENE 18 30 29.99 1016 4 6 0.01 0.25
2:54 pm 14:54 Cloudy with Light Rain 53 11.7 50 10 89 89 ENE 15 24 29.97 1015 5 8 0.05 1.27
3:54 pm 15:54 Cloudy with Light Rain 53 11.7 50 10 89 89 ENE 17 28 29.95 1014 4 6 0.04 1.02
4:54 pm 16:54 Cloudy with Light Rain 53 11.7 50 10 89 89 ENE 16 26 29.95 1014 4 6 0.06 1.52
5:24 pm 17:24 Cloudy with Light Rain 52 11.1 49 9.4 89 89 ENE 18 30 29.96 1014 4 6 0.04 1.02
5:33 pm 17:33 Cloudy with Rain 52 11.1 49 9.4 89 89 ENE 16 26 29.96 1014 3 5 0.05 1.27
5:52 pm 17:52 Cloudy with Light Rain 52 11 48 9 88 88 ENE 15 24 29.95 1014 4 6 0.07 1.78
5:54 pm 17:54 Cloudy with Light Rain 52 11.1 49 9.4 89 89 NE 18 30 29.94 1014 4 6 0.07 1.78
6:01 pm 18:01 Cloudy with Light Rain 52 11.1 49 9.4 89 89 NE 18 30 29.95 1014 4 6 0.01 0.25
6:27 pm 18:27 Cloudy with Rain 52 11.1 49 9.4 89 89 NE 16 26 29.95 1014 3 4 0.05 1.27
6:40 pm 18:40 Cloudy with Light Rain 52 11.1 49 9.4 89 89 NE 17 28 29.95 1014 4 6 0.08 2.03
6:54 pm 18:54 Cloudy with Light Rain 52 11.1 49 9.4 89 89 NE 21 33 29.93 1013 5 8 0.09 2.29
7:13 pm 19:13 Cloudy with Light Rain 51 10.6 49 9.4 92 92 NE 16 26 29.93 1014 4 6 0.01 0.25
7:29 pm 19:29 Cloudy with Light Rain 51 10.6 49 9.4 92 92 NE 17 28 29.93 1014 3 4 0.03 0.76
7:38 pm 19:38 Cloudy with Light Rain 51 10.6 49 9.4 92 92 NE 18 30 29.93 1014 4 6 0.03 0.76
7:45 pm 19:45 Cloudy with Light Rain 51 10.6 49 9.4 92 92 NE 15 24 29.93 1014 4 6 0.04 1.02
7:54 pm 19:54 Cloudy with Light Rain 51 10.6 48 8.9 89 89 NE 15 24 29.92 1013 4 6 0.04 1.02
8:08 pm 20:08 Cloudy with Light Rain 51 10.6 49 9.4 92 92 NE 15 24 29.93 1014 3 4 0.01 0.25
8:40 pm 20:40 Cloudy with Rain 51 10.6 48 8.9 89 89 NE 16 26 29.93 1014 3 5 0.08 2.03
8:54 pm 20:54 Cloudy with Rain 51 10.6 48 8.9 89 89 NE 16 26 29.91 1013 3 5 0.12 3.05
9:25 pm 21:25 Cloudy with Light Rain 50 10 48 8.9 93 93 NE 15 24 29.92 1013 3 4 0.06 1.52
9:41 pm 21:41 Cloudy with Light Rain 50 10 48 8.9 93 93 NE 18 30 29.92 1013 4 6 0.06 1.52
9:54 pm 21:54 Cloudy with Light Rain 50 10 48 8.9 93 93 NE 15 24 29.91 1013 3 5 0.07 1.78
10:22 pm 22:22 Cloudy with Light Rain 50 10 48 8.9 93 93 NE 16 26 29.92 1013 3 4 0.01 0.25
10:51 pm 22:51 Cloudy with Light Rain 50 10 48 9 94 94 NE 15 24 29.91 1013 4 6 0.03 0.76
10:54 pm 22:54 Cloudy with Light Rain 50 10 48 8.9 93 93 NE 16 26 29.90 1012 4 6 0.03 0.76
11:54 pm 23:54 Cloudy with Light Rain 51 10.6 48 8.9 89 89 NE 17 28 29.88 1012 4 6 0.01 0.25

Powered by AerisWeather